Location: ?????oe
(44.4874°N, 135.7046°E)
Time: 01:32:39
(UTC+00:00)

IRS-1C - Pass Details

Date: 13 December 2025
Orbit: 813 x 814 km, 99.0° (Epoch: 17 January)

Event Time Altitude Azimuth Distance (km) Brightness Sun altitude
Rises 21:33:24 0° 15° (NNE) 3,348 7.2 -9.1°
Reaches altitude 10° 21:35:46 10° 17° (NNE) 2,412 6.5 -8.7°
Maximum altitude 21:41:06 76° 104° (ESE) 842 4.4 -7.8°
Drops below altitude 10° 21:46:24 10° 190° (S) 2,394 6.8 -7.0°
Sets 21:48:44 0° 192° (SSW) 3,321 7.5 -6.6°
